| time (UTC) | temp F | wind direction | speed knots | gust knots | rain 1hr in | rain 24hr in | rain mn in | humidity % | barometer mb |
| 20260831181554 | 52 | 314 | 0.0 | 3.5 | 0.00 | 0.00 | 0.00 | 96 | 1015.8 |
| 20260831181044 | 52 | 314 | 0.9 | 3.5 | 0.00 | 0.00 | 0.00 | 96 | 1015.7 |
| 20260831180544 | 52 | 314 | 2.6 | 3.5 | 0.00 | 0.00 | 0.00 | 96 | 1015.7 |
| 20260831180057 | 52 | 315 | 0.0 | 4.3 | 0.00 | 0.00 | 0.00 | 96 | 1015.6 |
| 20260831175543 | 52 | 315 | 0.9 | 4.3 | 0.00 | 0.00 | 0.00 | 96 | 1015.6 |
| 20260831175044 | 52 | 314 | 0.0 | 2.6 | 0.00 | 0.00 | 0.00 | 96 | 1015.7 |
| 20260831174609 | 52 | 0 | 0.9 | 4.3 | 0.00 | 0.00 | 0.00 | 96 | 1015.6 |
| 20260831174044 | 51 | 314 | 0.0 | 4.3 | 0.00 | 0.00 | 0.00 | 96 | 1015.6 |
| 20260831173549 | 51 | 314 | 1.7 | 4.3 | 0.00 | 0.00 | 0.00 | 96 | 1015.6 |
| 20260831173057 | 51 | 0 | 0.9 | 3.5 | 0.00 | 0.00 | 0.00 | 96 | 1015.6 |
| 20260831172543 | 51 | 306 | 1.7 | 4.3 | 0.00 | 0.00 | 0.00 | 96 | 1015.7 |
| 20260831172043 | 51 | 316 | 0.0 | 4.3 | 0.00 | 0.00 | 0.00 | 96 | 1015.6 |
| 20260831171606 | 51 | 317 | 0.9 | 4.3 | 0.00 | 0.00 | 0.00 | 96 | 1015.6 |
| 20260831171044 | 51 | 314 | 0.9 | 3.5 | 0.00 | 0.00 | 0.00 | 96 | 1015.5 |
| 20260831170543 | 51 | 314 | 1.7 | 3.5 | 0.00 | 0.00 | 0.00 | 96 | 1015.4 |
| 20260831165543 | 51 | 0 | 0.9 | 6.1 | 0.00 | 0.00 | 0.00 | 96 | 1015.3 |
| 20260831165043 | 51 | 315 | 0.9 | 6.1 | 0.00 | 0.00 | 0.00 | 96 | 1015.3 |
| 20260831164607 | 51 | 322 | 1.7 | 4.3 | 0.00 | 0.00 | 0.00 | 96 | 1015.1 |
| 20260831164043 | 51 | 316 | 2.6 | 4.3 | 0.00 | 0.00 | 0.00 | 96 | 1015.1 |
| 20260831163545 | 51 | 313 | 0.9 | 3.5 | 0.00 | 0.00 | 0.00 | 96 | 1015.1 |
| 20260831163056 | 51 | 336 | 1.7 | 3.5 | 0.00 | 0.00 | 0.00 | 96 | 1015.1 |
| 20260831162543 | 51 | 306 | 0.9 | 2.6 | 0.00 | 0.00 | 0.00 | 96 | 1015.1 |
| 20260831162043 | 50 | 307 | 0.0 | 3.5 | 0.00 | 0.00 | 0.00 | 96 | 1014.9 |
| 20260831161554 | 50 | 307 | 0.9 | 4.3 | 0.00 | 0.00 | 0.00 | 96 | 1014.9 |
| 20260831161045 | 50 | 0 | 0.9 | 5.2 | 0.00 | 0.00 | 0.00 | 96 | 1014.8 |
| 20260831160544 | 50 | 305 | 2.6 | 6.1 | 0.00 | 0.00 | 0.00 | 96 | 1014.6 |
| 20260831160051 | 50 | 310 | 3.5 | 6.1 | 0.00 | 0.00 | 0.00 | 96 | 1014.6 |
| 20260831155547 | 50 | 326 | 1.7 | 3.5 | 0.00 | 0.00 | 0.00 | 96 | 1014.6 |
| 20260831155046 | 50 | 312 | 0.9 | 7.0 | 0.00 | 0.00 | 0.00 | 96 | 1014.7 |
| 20260831154620 | 50 | 313 | 2.6 | 7.0 | 0.00 | 0.00 | 0.00 | 96 | 1014.6 |
| 20260831154043 | 50 | 317 | 0.9 | 3.5 | 0.00 | 0.00 | 0.00 | 96 | 1014.5 |
| 20260831153543 | 50 | 312 | 1.7 | 3.5 | 0.00 | 0.00 | 0.00 | 96 | 1014.5 |
| 20260831153059 | 50 | 306 | 1.7 | 3.5 | 0.00 | 0.00 | 0.00 | 96 | 1014.4 |
| 20260831152546 | 50 | 315 | 1.7 | 3.5 | 0.00 | 0.00 | 0.00 | 96 | 1014.4 |
| 20260831152043 | 50 | 315 | 1.7 | 4.3 | 0.00 | 0.00 | 0.00 | 96 | 1014.4 |
| 20260831151553 | 50 | 315 | 1.7 | 6.1 | 0.00 | 0.00 | 0.00 | 96 | 1014.4 |
| 20260831151043 | 50 | 320 | 1.7 | 7.0 | 0.00 | 0.00 | 0.00 | 95 | 1014.4 |
| 20260831150543 | 50 | 324 | 3.5 | 7.0 | 0.00 | 0.00 | 0.00 | 96 | 1014.4 |
| 20260831150049 | 50 | 321 | 2.6 | 6.1 | 0.00 | 0.00 | 0.00 | 96 | 1014.3 |
| 20260831145543 | 50 | 311 | 2.6 | 5.2 | 0.00 | 0.00 | 0.00 | 96 | 1014.3 |
| 20260831145043 | 50 | 309 | 1.7 | 6.1 | 0.00 | 0.00 | 0.00 | 96 | 1014.0 |
| 20260831144551 | 50 | 321 | 2.6 | 6.1 | 0.00 | 0.00 | 0.00 | 96 | 1014.0 |
| 20260831144044 | 50 | 326 | 1.7 | 7.8 | 0.00 | 0.00 | 0.00 | 96 | 1014.0 |
| 20260831143543 | 50 | 318 | 3.5 | 7.8 | 0.00 | 0.00 | 0.00 | 95 | 1014.0 |
| 20260831143102 | 50 | 315 | 2.6 | 7.8 | 0.00 | 0.00 | 0.00 | 95 | 1014.0 |
| 20260831142546 | 50 | 319 | 2.6 | 6.1 | 0.00 | 0.00 | 0.00 | 96 | 1013.8 |
| 20260831142043 | 50 | 302 | 2.6 | 6.1 | 0.00 | 0.00 | 0.00 | 95 | 1013.7 |
| 20260831141557 | 50 | 312 | 1.7 | 7.0 | 0.00 | 0.00 | 0.00 | 95 | 1013.7 |
| 20260831141043 | 50 | 312 | 2.6 | 7.0 | 0.00 | 0.00 | 0.00 | 95 | 1013.7 |
| 20260831140543 | 50 | 300 | 2.6 | 7.0 | 0.00 | 0.00 | 0.00 | 95 | 1013.6 |
| 20260831140054 | 50 | 315 | 2.6 | 7.0 | 0.00 | 0.00 | 0.00 | 95 | 1013.7 |
| 20260831135544 | 50 | 316 | 2.6 | 7.0 | 0.00 | 0.00 | 0.00 | 95 | 1013.6 |
| 20260831135044 | 50 | 317 | 2.6 | 7.0 | 0.00 | 0.00 | 0.00 | 95 | 1013.5 |
| 20260831134604 | 50 | 309 | 3.5 | 7.0 | 0.00 | 0.00 | 0.00 | 95 | 1013.6 |
| 20260831134043 | 50 | 322 | 2.6 | 7.0 | 0.00 | 0.00 | 0.00 | 95 | 1013.5 |
| 20260831133543 | 50 | 314 | 3.5 | 7.8 | 0.00 | 0.00 | 0.00 | 95 | 1013.4 |
| 20260831133059 | 50 | 321 | 3.5 | 7.8 | 0.00 | 0.00 | 0.00 | 95 | 1013.4 |
| 20260831132543 | 50 | 321 | 3.5 | 8.7 | 0.00 | 0.00 | 0.00 | 95 | 1013.4 |
| 20260831132047 | 50 | 308 | 4.3 | 8.7 | 0.00 | 0.00 | 0.00 | 95 | 1013.3 |
| 20260831131600 | 49 | 302 | 4.3 | 7.8 | 0.00 | 0.00 | 0.00 | 95 | 1013.4 |
| 20260831131044 | 49 | 330 | 4.3 | 7.0 | 0.00 | 0.00 | 0.00 | 95 | 1013.4 |
| 20260831130544 | 49 | 313 | 3.5 | 7.0 | 0.00 | 0.00 | 0.00 | 95 | 1013.4 |
| 20260831130058 | 49 | 296 | 2.6 | 7.0 | 0.00 | 0.00 | 0.00 | 95 | 1013.4 |
| 20260831125544 | 49 | 308 | 3.5 | 7.0 | 0.00 | 0.00 | 0.00 | 95 | 1013.5 |
| 20260831125043 | 49 | 314 | 2.6 | 7.0 | 0.00 | 0.00 | 0.00 | 95 | 1013.6 |
| 20260831124603 | 49 | 315 | 2.6 | 7.0 | 0.00 | 0.00 | 0.00 | 95 | 1013.6 |
| 20260831124044 | 49 | 307 | 3.5 | 7.0 | 0.00 | 0.00 | 0.00 | 95 | 1013.5 |
| 20260831123544 | 49 | 308 | 2.6 | 7.0 | 0.00 | 0.00 | 0.00 | 95 | 1013.5 |
| 20260831123100 | 49 | 315 | 3.5 | 7.0 | 0.00 | 0.00 | 0.00 | 95 | 1013.5 |
| 20260831122543 | 49 | 310 | 3.5 | 7.0 | 0.00 | 0.00 | 0.00 | 95 | 1013.5 |
| 20260831122044 | 49 | 304 | 2.6 | 7.0 | 0.00 | 0.00 | 0.00 | 95 | 1013.4 |
| 20260831121558 | 49 | 317 | 2.6 | 6.1 | 0.00 | 0.00 | 0.00 | 95 | 1013.3 |
| 20260831121043 | 49 | 314 | 2.6 | 6.1 | 0.00 | 0.00 | 0.00 | 95 | 1013.3 |
| 20260831120542 | 49 | 316 | 3.5 | 7.0 | 0.00 | 0.00 | 0.00 | 95 | 1013.3 |
| 20260831120056 | 49 | 309 | 3.5 | 7.0 | 0.00 | 0.00 | 0.00 | 95 | 1013.2 |
| 20260831115543 | 49 | 305 | 2.6 | 6.1 | 0.00 | 0.00 | 0.00 | 95 | 1013.3 |
| 20260831115043 | 48 | 306 | 3.5 | 7.8 | 0.00 | 0.00 | 0.00 | 95 | 1013.4 |
| 20260831114600 | 49 | 309 | 4.3 | 7.8 | 0.00 | 0.00 | 0.00 | 95 | 1013.3 |
| 20260831114047 | 49 | 299 | 2.6 | 6.1 | 0.00 | 0.00 | 0.00 | 95 | 1013.3 |
| 20260831113544 | 49 | 313 | 1.7 | 4.3 | 0.00 | 0.00 | 0.00 | 95 | 1013.4 |
| 20260831113114 | 49 | 308 | 2.6 | 4.3 | 0.00 | 0.00 | 0.00 | 95 | 1013.3 |
| 20260831112546 | 49 | 311 | 1.7 | 3.5 | 0.00 | 0.00 | 0.00 | 95 | 1013.4 |
| 20260831112044 | 49 | 313 | 1.7 | 3.5 | 0.00 | 0.00 | 0.00 | 95 | 1013.4 |
| 20260831111551 | 49 | 312 | 1.7 | 5.2 | 0.00 | 0.00 | 0.00 | 95 | 1013.4 |
| 20260831111043 | 49 | 317 | 1.7 | 5.2 | 0.00 | 0.00 | 0.00 | 95 | 1013.5 |
| 20260831110547 | 49 | 322 | 1.7 | 5.2 | 0.00 | 0.00 | 0.00 | 95 | 1013.4 |
| 20260831110100 | 49 | 311 | 2.6 | 5.2 | 0.00 | 0.00 | 0.00 | 95 | 1013.4 |
| 20260831105544 | 48 | 304 | 1.7 | 4.3 | 0.00 | 0.00 | 0.00 | 95 | 1013.3 |
| 20260831105044 | 48 | 304 | 1.7 | 4.3 | 0.00 | 0.00 | 0.00 | 94 | 1013.3 |
| 20260831104601 | 48 | 316 | 2.6 | 4.3 | 0.00 | 0.00 | 0.00 | 94 | 1013.3 |
| 20260831104043 | 48 | 311 | 2.6 | 4.3 | 0.00 | 0.00 | 0.00 | 94 | 1013.3 |
| 20260831103546 | 48 | 306 | 2.6 | 4.3 | 0.00 | 0.00 | 0.00 | 94 | 1013.3 |
| 20260831103058 | 48 | 310 | 1.7 | 3.5 | 0.00 | 0.00 | 0.00 | 94 | 1013.2 |
| 20260831102546 | 48 | 312 | 1.7 | 3.5 | 0.00 | 0.00 | 0.00 | 94 | 1013.2 |
| 20260831102044 | 48 | 302 | 0.9 | 2.6 | 0.00 | 0.00 | 0.00 | 94 | 1013.2 |
| 20260831101555 | 48 | 294 | 0.0 | 0.9 | 0.00 | 0.00 | 0.00 | 94 | 1013.2 |
| 20260831101045 | 48 | 0 | 0.0 | 1.7 | 0.00 | 0.00 | 0.00 | 94 | 1013.1 |
| 20260831100549 | 48 | 294 | 0.0 | 2.6 | 0.00 | 0.00 | 0.00 | 94 | 1013.1 |
| 20260831100216 | 48 | 294 | 0.0 | 2.6 | 0.00 | 0.00 | 0.00 | 94 | 1013.1 |
| 20260831095543 | 48 | 294 | 0.9 | 2.6 | 0.00 | 0.00 | 0.00 | 94 | 1013.2 |
| 20260831095044 | 48 | 294 | 0.9 | 1.7 | 0.00 | 0.00 | 0.00 | 94 | 1013.2 |
| 20260831094614 | 48 | 254 | 0.9 | 1.7 | 0.00 | 0.00 | 0.00 | 94 | 1013.1 |
| 20260831094044 | 48 | 0 | 0.0 | 0.0 | 0.00 | 0.00 | 0.00 | 94 | 1013.0 |
| 20260831093544 | 48 | 0 | 0.0 | 0.9 | 0.00 | 0.00 | 0.00 | 94 | 1013.0 |
| 20260831093057 | 48 | 0 | 0.0 | 2.6 | 0.00 | 0.00 | 0.00 | 93 | 1013.1 |
| 20260831092545 | 48 | 0 | 0.0 | 2.6 | 0.00 | 0.00 | 0.00 | 93 | 1013.1 |
| 20260831092045 | 48 | 244 | 0.9 | 2.6 | 0.00 | 0.00 | 0.00 | 93 | 1013.2 |
| 20260831091552 | 48 | 154 | 0.9 | 1.7 | 0.00 | 0.00 | 0.00 | 93 | 1013.2 |
| 20260831091048 | 48 | 145 | 0.9 | 2.6 | 0.00 | 0.00 | 0.00 | 93 | 1013.2 |
| 20260831090546 | 49 | 144 | 0.9 | 2.6 | 0.00 | 0.00 | 0.00 | 92 | 1013.2 |
| 20260831090107 | 49 | 0 | 0.0 | 0.0 | 0.00 | 0.00 | 0.00 | 93 | 1013.2 |
| 20260831085544 | 49 | 0 | 0.0 | 0.0 | 0.00 | 0.00 | 0.00 | 93 | 1013.2 |
| 20260831085044 | 49 | 0 | 0.0 | 0.0 | 0.00 | 0.00 | 0.00 | 92 | 1013.3 |
| 20260831084602 | 49 | 0 | 0.0 | 0.0 | 0.00 | 0.00 | 0.00 | 92 | 1013.4 |
| 20260831084043 | 49 | 0 | 0.0 | 0.9 | 0.00 | 0.00 | 0.00 | 92 | 1013.4 |
| 20260831083543 | 49 | 0 | 0.0 | 1.7 | 0.00 | 0.00 | 0.00 | 91 | 1013.4 |
| 20260831083109 | 50 | 0 | 0.0 | 1.7 | 0.00 | 0.00 | 0.00 | 91 | 1013.4 |
| 20260831082544 | 50 | 144 | 0.0 | 0.9 | 0.00 | 0.00 | 0.00 | 90 | 1013.3 |
| 20260831082044 | 50 | 0 | 0.0 | 0.0 | 0.00 | 0.00 | 0.00 | 90 | 1013.3 |
| 20260831081609 | 51 | 0 | 0.0 | 0.0 | 0.00 | 0.00 | 0.00 | 90 | 1013.4 |
| 20260831081044 | 51 | 0 | 0.0 | 0.0 | 0.00 | 0.00 | 0.00 | 90 | 1013.4 |
| 20260831080544 | 52 | 0 | 0.0 | 0.0 | 0.00 | 0.00 | 0.00 | 89 | 1013.4 |
| 20260831080100 | 52 | 0 | 0.0 | 0.0 | 0.00 | 0.00 | 0.00 | 90 | 1013.4 |
| 20260831075543 | 52 | 0 | 0.0 | 0.0 | 0.00 | 0.00 | 0.00 | 89 | 1013.4 |
| 20260831075043 | 52 | 0 | 0.0 | 0.0 | 0.00 | 0.00 | 0.00 | 89 | 1013.5 |
| 20260831074557 | 52 | 0 | 0.0 | 0.0 | 0.00 | 0.00 | 0.00 | 89 | 1013.5 |
| 20260831074045 | 52 | 0 | 0.0 | 0.0 | 0.00 | 0.00 | 0.00 | 88 | 1013.5 |
| 20260831073543 | 52 | 0 | 0.0 | 0.9 | 0.00 | 0.00 | 0.00 | 87 | 1013.4 |
| 20260831073105 | 53 | 0 | 0.0 | 0.9 | 0.00 | 0.00 | 0.00 | 86 | 1013.4 |
| 20260831072543 | 54 | 0 | 0.0 | 0.9 | 0.00 | 0.00 | 0.00 | 86 | 1013.4 |
| 20260831072044 | 54 | 0 | 0.0 | 0.0 | 0.00 | 0.00 | 0.00 | 87 | 1013.3 |
| 20260831071602 | 55 | 0 | 0.0 | 0.0 | 0.00 | 0.00 | 0.00 | 88 | 1013.3 |
| 20260831071045 | 55 | 0 | 0.0 | 0.0 | 0.00 | 0.00 | 0.00 | 88 | 1013.3 |
| 20260831070544 | 55 | 0 | 0.0 | 0.0 | 0.00 | 0.00 | 0.00 | 88 | 1013.3 |
| 20260831065544 | 55 | 0 | 0.0 | 0.9 | 0.00 | 0.00 | 0.00 | 90 | 1013.3 |
| 20260831065044 | 54 | 0 | 0.0 | 0.9 | 0.00 | 0.00 | 0.00 | 90 | 1013.3 |
| 20260831064603 | 54 | 0 | 0.0 | 0.9 | 0.00 | 0.00 | 0.00 | 90 | 1013.3 |
| 20260831064047 | 54 | 0 | 0.0 | 1.7 | 0.00 | 0.00 | 0.00 | 90 | 1013.4 |
| 20260831063543 | 54 | 0 | 0.0 | 1.7 | 0.00 | 0.00 | 0.00 | 90 | 1013.4 |
| 20260831063059 | 54 | 0 | 0.9 | 1.7 | 0.00 | 0.00 | 0.00 | 90 | 1013.6 |
| 20260831062544 | 54 | 0 | 0.0 | 0.0 | 0.00 | 0.00 | 0.00 | 89 | 1013.6 |
| 20260831062044 | 54 | 0 | 0.0 | 0.0 | 0.00 | 0.00 | 0.00 | 89 | 1013.5 |
| 20260831061605 | 54 | 0 | 0.0 | 0.0 | 0.00 | 0.00 | 0.00 | 89 | 1013.6 |
| 20260831061046 | 54 | 0 | 0.0 | 0.9 | 0.00 | 0.00 | 0.00 | 88 | 1013.7 |
| 20260831060543 | 54 | 0 | 0.0 | 0.9 | 0.00 | 0.00 | 0.00 | 88 | 1013.7 |
| 20260831060059 | 55 | 0 | 0.0 | 2.6 | 0.00 | 0.00 | 0.00 | 88 | 1013.6 |
| 20260831055544 | 55 | 0 | 0.0 | 2.6 | 0.00 | 0.00 | 0.00 | 88 | 1013.6 |
| 20260831055044 | 55 | 144 | 1.7 | 2.6 | 0.00 | 0.00 | 0.00 | 87 | 1013.6 |
| 20260831054553 | 55 | 139 | 0.9 | 2.6 | 0.00 | 0.00 | 0.00 | 87 | 1013.6 |
| 20260831054044 | 55 | 0 | 0.9 | 2.6 | 0.00 | 0.00 | 0.00 | 86 | 1013.5 |
| 20260831053544 | 56 | 0 | 0.0 | 2.6 | 0.00 | 0.00 | 0.00 | 86 | 1013.5 |
| 20260831053102 | 56 | 131 | 0.9 | 2.6 | 0.00 | 0.00 | 0.00 | 85 | 1013.7 |
| 20260831052549 | 56 | 131 | 0.0 | 2.6 | 0.00 | 0.00 | 0.00 | 84 | 1013.7 |
| 20260831052044 | 57 | 0 | 0.0 | 3.5 | 0.00 | 0.00 | 0.00 | 84 | 1013.8 |
| 20260831051608 | 57 | 131 | 1.7 | 3.5 | 0.00 | 0.00 | 0.00 | 83 | 1013.7 |
| 20260831051043 | 57 | 124 | 1.7 | 2.6 | 0.00 | 0.00 | 0.00 | 83 | 1013.7 |
| 20260831050544 | 57 | 117 | 0.9 | 2.6 | 0.00 | 0.00 | 0.00 | 83 | 1013.7 |
| 20260831050059 | 57 | 117 | 0.9 | 2.6 | 0.00 | 0.00 | 0.00 | 83 | 1013.8 |
| 20260831045544 | 57 | 117 | 0.9 | 2.6 | 0.00 | 0.00 | 0.00 | 83 | 1013.8 |
| 20260831045044 | 58 | 0 | 1.7 | 2.6 | 0.00 | 0.00 | 0.00 | 83 | 1013.8 |
| 20260831044612 | 58 | 117 | 0.0 | 2.6 | 0.00 | 0.00 | 0.00 | 82 | 1013.8 |
| 20260831044045 | 58 | 0 | 0.0 | 2.6 | 0.00 | 0.00 | 0.00 | 82 | 1013.7 |
| 20260831043543 | 58 | 117 | 0.9 | 2.6 | 0.00 | 0.00 | 0.00 | 83 | 1013.8 |
| 20260831043059 | 58 | 0 | 0.0 | 1.7 | 0.00 | 0.00 | 0.00 | 82 | 1013.8 |
| 20260831042547 | 58 | 0 | 0.0 | 1.7 | 0.00 | 0.00 | 0.00 | 83 | 1013.8 |
| 20260831042047 | 57 | 0 | 0.0 | 1.7 | 0.00 | 0.00 | 0.00 | 83 | 1013.8 |
| 20260831041600 | 57 | 0 | 0.0 | 0.0 | 0.00 | 0.00 | 0.00 | 83 | 1013.7 |
| 20260831041043 | 57 | 0 | 0.0 | 0.0 | 0.00 | 0.00 | 0.00 | 84 | 1013.7 |
| 20260831040543 | 57 | 0 | 0.0 | 0.0 | 0.00 | 0.00 | 0.00 | 85 | 1013.7 |
| 20260831040109 | 57 | 0 | 0.0 | 0.0 | 0.00 | 0.00 | 0.00 | 85 | 1013.6 |
| 20260831035543 | 57 | 0 | 0.0 | 0.0 | 0.00 | 0.00 | 0.00 | 85 | 1013.6 |
| 20260831035043 | 57 | 0 | 0.0 | 0.0 | 0.00 | 0.00 | 0.00 | 86 | 1013.5 |
| 20260831034559 | 57 | 0 | 0.0 | 0.9 | 0.00 | 0.00 | 0.00 | 86 | 1013.5 |
| 20260831034043 | 57 | 0 | 0.0 | 0.9 | 0.00 | 0.00 | 0.00 | 86 | 1013.4 |
| 20260831033543 | 57 | 0 | 0.0 | 0.9 | 0.00 | 0.00 | 0.00 | 86 | 1013.5 |
| 20260831033100 | 57 | 0 | 0.0 | 0.9 | 0.00 | 0.00 | 0.00 | 86 | 1013.3 |
| 20260831032544 | 57 | 0 | 0.0 | 0.9 | 0.00 | 0.00 | 0.00 | 87 | 1013.3 |
| 20260831032048 | 56 | 0 | 0.0 | 0.9 | 0.00 | 0.00 | 0.00 | 87 | 1013.3 |
| 20260831031602 | 56 | 0 | 0.0 | 0.0 | 0.00 | 0.00 | 0.00 | 87 | 1013.3 |
| 20260831031043 | 56 | 0 | 0.0 | 0.0 | 0.00 | 0.00 | 0.00 | 87 | 1013.3 |
| 20260831030544 | 56 | 0 | 0.0 | 0.0 | 0.00 | 0.00 | 0.00 | 87 | 1013.3 |
| 20260831025544 | 56 | 0 | 0.0 | 1.7 | 0.00 | 0.00 | 0.00 | 85 | 1013.3 |
| 20260831025051 | 56 | 314 | 0.9 | 1.7 | 0.00 | 0.00 | 0.00 | 84 | 1013.3 |
| 20260831024601 | 57 | 0 | 0.0 | 1.7 | 0.00 | 0.00 | 0.00 | 84 | 1013.2 |
| 20260831024043 | 57 | 307 | 0.9 | 2.6 | 0.00 | 0.00 | 0.00 | 83 | 1013.2 |
| 20260831023547 | 58 | 306 | 0.9 | 2.6 | 0.00 | 0.00 | 0.00 | 82 | 1013.3 |
| 20260831023103 | 58 | 313 | 0.0 | 2.6 | 0.00 | 0.00 | 0.00 | 81 | 1013.3 |
| 20260831022543 | 59 | 311 | 0.0 | 1.7 | 0.00 | 0.00 | 0.00 | 81 | 1013.3 |
| 20260831022043 | 59 | 306 | 0.0 | 2.6 | 0.00 | 0.00 | 0.00 | 80 | 1013.3 |
| 20260831021551 | 59 | 0 | 0.0 | 2.6 | 0.00 | 0.00 | 0.00 | 79 | 1013.3 |
| 20260831021044 | 60 | 304 | 0.9 | 2.6 | 0.00 | 0.00 | 0.00 | 79 | 1013.2 |
| 20260831020547 | 60 | 300 | 0.9 | 3.5 | 0.00 | 0.00 | 0.00 | 78 | 1013.2 |
| 20260831015543 | 61 | 302 | 1.7 | 4.3 | 0.00 | 0.00 | 0.00 | 77 | 1013.3 |
| 20260831015043 | 61 | 305 | 1.7 | 3.5 | 0.00 | 0.00 | 0.00 | 76 | 1013.2 |
| 20260831014557 | 62 | 294 | 1.7 | 4.3 | 0.00 | 0.00 | 0.00 | 76 | 1013.2 |
| 20260831014043 | 62 | 302 | 1.7 | 4.3 | 0.00 | 0.00 | 0.00 | 75 | 1013.3 |
| 20260831013543 | 62 | 313 | 1.7 | 3.5 | 0.00 | 0.00 | 0.00 | 74 | 1013.3 |
| 20260831013108 | 63 | 313 | 1.7 | 4.3 | 0.00 | 0.00 | 0.00 | 73 | 1013.3 |
| 20260831012546 | 63 | 308 | 1.7 | 4.3 | 0.00 | 0.00 | 0.00 | 73 | 1013.3 |
| 20260831012046 | 64 | 305 | 1.7 | 4.3 | 0.00 | 0.00 | 0.00 | 72 | 1013.4 |
| 20260831011603 | 64 | 305 | 1.7 | 3.5 | 0.00 | 0.00 | 0.00 | 72 | 1013.4 |
| 20260831011048 | 64 | 304 | 0.9 | 3.5 | 0.00 | 0.00 | 0.00 | 71 | 1013.4 |
| 20260831010545 | 64 | 304 | 1.7 | 4.3 | 0.00 | 0.00 | 0.00 | 71 | 1013.5 |
| 20260831010058 | 65 | 303 | 2.6 | 5.2 | 0.00 | 0.00 | 0.00 | 70 | 1013.5 |
| 20260831005543 | 65 | 311 | 2.6 | 6.1 | 0.00 | 0.00 | 0.00 | 70 | 1013.5 |
| 20260831005044 | 66 | 303 | 2.6 | 6.1 | 0.00 | 0.00 | 0.00 | 69 | 1013.4 |
| 20260831004555 | 66 | 296 | 2.6 | 6.1 | 0.00 | 0.00 | 0.00 | 68 | 1013.5 |
| 20260831004044 | 66 | 296 | 2.6 | 6.1 | 0.00 | 0.00 | 0.00 | 67 | 1013.4 |
| 20260831003543 | 67 | 296 | 2.6 | 6.1 | 0.00 | 0.00 | 0.00 | 68 | 1013.4 |
| 20260831003104 | 67 | 306 | 3.5 | 6.1 | 0.00 | 0.00 | 0.00 | 67 | 1013.5 |
| 20260831002543 | 67 | 311 | 2.6 | 6.1 | 0.00 | 0.00 | 0.00 | 66 | 1013.5 |
| 20260831002045 | 67 | 298 | 2.6 | 6.1 | 0.00 | 0.00 | 0.00 | 66 | 1013.6 |
| 20260831001600 | 68 | 309 | 2.6 | 6.1 | 0.00 | 0.00 | 0.00 | 66 | 1013.6 |
| 20260831001043 | 68 | 301 | 2.6 | 6.1 | 0.00 | 0.00 | 0.00 | 65 | 1013.6 |
| 20260831000543 | 68 | 308 | 2.6 | 6.1 | 0.00 | 0.00 | 0.00 | 65 | 1013.7 |
| 20260831000106 | 68 | 302 | 2.6 | 6.1 | 0.00 | 0.00 | 0.00 | 66 | 1013.6 |
| 20260830235543 | 68 | 301 | 2.6 | 5.2 | 0.00 | 0.00 | 0.00 | 66 | 1013.6 |
| 20260830235046 | 68 | 298 | 2.6 | 6.1 | 0.00 | 0.00 | 0.00 | 65 | 1013.6 |
| 20260830234600 | 69 | 301 | 3.5 | 6.1 | 0.00 | 0.00 | 0.00 | 64 | 1013.7 |
| 20260830234043 | 69 | 304 | 2.6 | 4.3 | 0.00 | 0.00 | 0.00 | 64 | 1013.7 |
| 20260830233543 | 69 | 294 | 2.6 | 6.1 | 0.00 | 0.00 | 0.00 | 63 | 1013.6 |
| 20260830233103 | 69 | 302 | 2.6 | 6.1 | 0.00 | 0.00 | 0.00 | 63 | 1013.7 |
| 20260830232542 | 69 | 315 | 3.5 | 6.1 | 0.00 | 0.00 | 0.00 | 63 | 1013.6 |
| 20260830232046 | 69 | 304 | 2.6 | 6.1 | 0.00 | 0.00 | 0.00 | 63 | 1013.7 |
| 20260830231606 | 69 | 313 | 1.7 | 7.0 | 0.00 | 0.00 | 0.00 | 62 | 1013.8 |
| 20260830231045 | 70 | 300 | 3.5 | 7.0 | 0.00 | 0.00 | 0.00 | 62 | 1013.7 |
| 20260830230544 | 70 | 306 | 3.5 | 7.0 | 0.00 | 0.00 | 0.00 | 61 | 1013.7 |
| 20260830230052 | 70 | 315 | 4.3 | 7.0 | 0.00 | 0.00 | 0.00 | 61 | 1013.7 |
| 20260830225544 | 70 | 296 | 2.6 | 7.0 | 0.00 | 0.00 | 0.00 | 62 | 1013.8 |
| 20260830225046 | 70 | 304 | 3.5 | 7.0 | 0.00 | 0.00 | 0.00 | 61 | 1013.8 |
| 20260830224600 | 71 | 296 | 3.5 | 6.1 | 0.00 | 0.00 | 0.00 | 60 | 1013.9 |
| 20260830224044 | 71 | 317 | 3.5 | 6.1 | 0.00 | 0.00 | 0.00 | 60 | 1013.9 |
| 20260830223544 | 71 | 317 | 2.6 | 6.1 | 0.00 | 0.00 | 0.00 | 60 | 1013.9 |
| 20260830223110 | 71 | 312 | 2.6 | 6.1 | 0.00 | 0.00 | 0.00 | 60 | 1013.9 |
| 20260830222546 | 71 | 313 | 2.6 | 6.1 | 0.00 | 0.00 | 0.00 | 60 | 1014.0 |
| 20260830222044 | 71 | 302 | 2.6 | 6.1 | 0.00 | 0.00 | 0.00 | 61 | 1014.0 |
| 20260830221553 | 70 | 303 | 0.9 | 5.2 | 0.00 | 0.00 | 0.00 | 62 | 1014.0 |
| 20260830221044 | 70 | 303 | 2.6 | 6.1 | 0.00 | 0.00 | 0.00 | 61 | 1014.0 |
| 20260830220544 | 70 | 311 | 3.5 | 6.1 | 0.00 | 0.00 | 0.00 | 61 | 1014.0 |
| 20260830220050 | 70 | 299 | 2.6 | 7.0 | 0.00 | 0.00 | 0.00 | 61 | 1014.1 |
| 20260830215545 | 70 | 296 | 2.6 | 7.0 | 0.00 | 0.00 | 0.00 | 61 | 1014.3 |
| 20260830215045 | 70 | 292 | 2.6 | 7.0 | 0.00 | 0.00 | 0.00 | 61 | 1014.4 |
| 20260830214615 | 70 | 304 | 3.5 | 7.0 | 0.00 | 0.00 | 0.00 | 60 | 1014.4 |
| 20260830214045 | 71 | 297 | 3.5 | 7.0 | 0.00 | 0.00 | 0.00 | 60 | 1014.5 |
| 20260830213544 | 71 | 318 | 2.6 | 6.1 | 0.00 | 0.00 | 0.00 | 59 | 1014.6 |
| 20260830213102 | 71 | 310 | 2.6 | 6.1 | 0.00 | 0.00 | 0.00 | 58 | 1014.8 |
| 20260830212544 | 72 | 307 | 1.7 | 4.3 | 0.00 | 0.00 | 0.00 | 57 | 1014.7 |
| 20260830212045 | 73 | 311 | 1.7 | 4.3 | 0.00 | 0.00 | 0.00 | 56 | 1014.8 |
| 20260830211607 | 73 | 278 | 0.9 | 2.6 | 0.00 | 0.00 | 0.00 | 56 | 1015.0 |
| 20260830211045 | 73 | 296 | 1.7 | 4.3 | 0.00 | 0.00 | 0.00 | 56 | 1014.9 |
| 20260830210544 | 73 | 0 | 0.0 | 4.3 | 0.00 | 0.00 | 0.00 | 55 | 1014.9 |
| 20260830210117 | 74 | 15 | 0.0 | 1.7 | 0.00 | 0.00 | 0.00 | 55 | 1014.9 |
| 20260830205546 | 74 | 0 | 0.0 | 2.6 | 0.00 | 0.00 | 0.00 | 55 | 1015.0 |
| 20260830205046 | 73 | 0 | 0.0 | 3.5 | 0.00 | 0.00 | 0.00 | 57 | 1015.1 |
| 20260830204600 | 73 | 348 | 1.7 | 3.5 | 0.00 | 0.00 | 0.00 | 56 | 1014.9 |
| 20260830204044 | 73 | 0 | 0.0 | 2.6 | 0.00 | 0.00 | 0.00 | 56 | 1014.9 |
| 20260830203544 | 71 | 351 | 0.0 | 2.6 | 0.00 | 0.00 | 0.00 | 59 | 1015.0 |
| 20260830203053 | 71 | 0 | 0.0 | 4.3 | 0.00 | 0.00 | 0.00 | 59 | 1015.0 |
| 20260830202544 | 69 | 351 | 1.7 | 4.3 | 0.00 | 0.00 | 0.00 | 60 | 1015.0 |
| 20260830202044 | 69 | 330 | 0.9 | 3.5 | 0.00 | 0.00 | 0.00 | 62 | 1015.0 |
| 20260830201605 | 69 | 335 | 1.7 | 3.5 | 0.00 | 0.00 | 0.00 | 62 | 1015.0 |
| 20260830201044 | 69 | 327 | 0.9 | 3.5 | 0.00 | 0.00 | 0.00 | 62 | 1015.0 |
| 20260830200546 | 69 | 336 | 0.9 | 3.5 | 0.00 | 0.00 | 0.00 | 61 | 1015.1 |
| 20260830200104 | 68 | 0 | 0.0 | 3.5 | 0.00 | 0.00 | 0.00 | 63 | 1015.1 |
| 20260830195543 | 68 | 0 | 0.0 | 4.3 | 0.00 | 0.00 | 0.00 | 64 | 1015.1 |
| 20260830195045 | 68 | 323 | 0.9 | 4.3 | 0.00 | 0.00 | 0.00 | 65 | 1015.2 |
| 20260830194553 | 68 | 299 | 0.9 | 3.5 | 0.00 | 0.00 | 0.00 | 64 | 1015.2 |
| 20260830194043 | 67 | 305 | 0.9 | 2.6 | 0.00 | 0.00 | 0.00 | 65 | 1015.4 |
| 20260830193543 | 67 | 304 | 0.9 | 3.5 | 0.00 | 0.00 | 0.00 | 65 | 1015.3 |
| 20260830193050 | 67 | 338 | 0.0 | 4.3 | 0.00 | 0.00 | 0.00 | 65 | 1015.3 |
| 20260830192543 | 67 | 338 | 0.9 | 4.3 | 0.00 | 0.00 | 0.00 | 65 | 1015.4 |
| 20260830192043 | 66 | 296 | 0.9 | 2.6 | 0.00 | 0.00 | 0.00 | 67 | 1015.4 |
| 20260830191559 | 66 | 310 | 0.9 | 3.5 | 0.00 | 0.00 | 0.00 | 67 | 1015.5 |
| 20260830191043 | 65 | 309 | 0.9 | 3.5 | 0.00 | 0.00 | 0.00 | 66 | 1015.4 |
| 20260830190545 | 65 | 309 | 1.7 | 3.5 | 0.00 | 0.00 | 0.00 | 66 | 1015.4 |
| 20260830190126 | 65 | 311 | 0.9 | 4.3 | 0.00 | 0.00 | 0.00 | 66 | 1015.5 |
| 20260830185543 | 65 | 242 | 1.7 | 4.3 | 0.00 | 0.00 | 0.00 | 67 | 1015.4 |
| 20260830185045 | 64 | 322 | 0.9 | 2.6 | 0.00 | 0.00 | 0.00 | 68 | 1015.4 |
| 20260830184628 | 64 | 321 | 0.9 | 3.5 | 0.00 | 0.00 | 0.00 | 69 | 1015.5 |
| 20260830184043 | 63 | 318 | 0.9 | 4.3 | 0.00 | 0.00 | 0.00 | 69 | 1015.5 |
| 20260830183543 | 63 | 318 | 2.6 | 4.3 | 0.00 | 0.00 | 0.00 | 68 | 1015.5 |
| 20260830183114 | 63 | 327 | 0.9 | 4.3 | 0.00 | 0.00 | 0.00 | 67 | 1015.4 |
| 20260830182543 | 62 | 315 | 1.7 | 4.3 | 0.00 | 0.00 | 0.00 | 68 | 1015.4 |
| 20260830182042 | 62 | 322 | 1.7 | 4.3 | 0.00 | 0.00 | 0.00 | 67 | 1015.5 |